Location: Unspecified
(0.0000°N, 0.0000°E)
Time: 02:13:52
(UTC+00:00)

Vanguard 1 - Pass Details

Date: 20 December 2018
Orbit: 650 x 3833 km, 34.3° (Epoch: 16 January)

Event Time Altitude Azimuth Distance (km) Brightness Sun altitude
Rises 18:19:52 0° 245° (WSW) 7,688 17.7 -5.1°
Reaches altitude 10° 18:28:08 10° 228° (SW) 6,901 15.8 -7.0°
Maximum altitude 18:42:50 19° 189° (S) 6,001 14.5 -10.3°
Drops below altitude 10° 18:55:59 10° 149° (SSE) 6,113 14.0 -13.3°
Sets 19:02:35 0° 132° (SE) 6,593 14.0 -14.8°
